Weather Conditions for:

Torrance, Zamperini Field Airport, CA (KTOA)
Elev: 102 ft; Latitude: 33.80; Longitude: -118.33333

Time Temp. Wind Direction Wind Speed (mph)  
(PDT) (f)
15 Sep 7:47 am PDT 77 VRBL 6
15 Sep 6:50 am PDT 73 VRBL 6
14 Sep 7:47 pm PDT 86 WNW 12
14 Sep 6:53 pm PDT 90 W 17
14 Sep 5:47 pm PDT 91 WNW 17 Gust 23
14 Sep 4:47 pm PDT 88 WNW 17
14 Sep 3:50 pm PDT 88 WNW 18
14 Sep 2:47 pm PDT 88 WNW 23 Gust 30
14 Sep 1:47 pm PDT 88 WNW 18
14 Sep 12:47 pm PDT 88 WNW 17
14 Sep 11:47 am PDT 88 NW 12
14 Sep 10:47 am PDT 88 WNW 12
14 Sep 8:50 am PDT 81 NW 6
14 Sep 7:55 am PDT 77 NW 6
14 Sep 6:50 am PDT 72 CALM
13 Sep 7:47 pm PDT 84 WNW 17
13 Sep 6:47 pm PDT 84 WNW 14
13 Sep 5:47 pm PDT 90 WNW 14
13 Sep 4:47 pm PDT 84 WNW 17
13 Sep 3:47 pm PDT 84 WNW 17
13 Sep 2:47 pm PDT 81 WNW 18 Gust 24
13 Sep 11:47 am PDT 84 WNW 15
13 Sep 10:47 am PDT 81 NW 15
13 Sep 9:47 am PDT 81 WNW 9
13 Sep 8:50 am PDT 79 CALM
13 Sep 7:55 am PDT 75 CALM

 http://www.wrh.noaa.gov/mesowest/getobext.php?wfo=lox&sid=KTOA&num=168&raw=0&dbn=m